KLEX Airport Diagram

We have created a template for each of the higher traffic airports in the vZID airspace. They include KCMH, KCRW, KCVG, KDAY, KIND, KLEX and KSDF. You wil find usefull information including the airport diagram, weather, and specific airport procedures.

KLEX Weather

[Source: ADDS]
METAR
KLEX 241554Z 21008KT 10SM CLR 09/M03 A2999 RMK AO2 SLP159 T00941028 =
TAF
KLEX 241120Z 2412/2512 16003KT P6SM SKC FM241600 20010KT P6SM SKC =
JSN Epic template designed by JoomlaShine.com